Preview of NWS' New Version of Forecast
This preview is not operational and should not be used for support decisions.

Regional Weather Roundup (RWR)

Issued by National Weather Service (NWS)

                            
000
ASUS43 KDTX 211201
RWRMI 
MICHIGAN HOURLY REGIONAL WEATHER ROUNDUP
NATIONAL WEATHER SERVICE DETROIT/PONTIAC MI
700 AM EST THU FEB 21 2019

NOTE: "FAIR" INDICATES FEW OR NO CLOUDS BELOW 12,000 FEET WITH NO
SIGNIFICANT WEATHER AND/OR OBSTRUCTION TO VISIBILITY.

MIZ047>049-052>055-059>063-066>070-074>076-081>083-211300-
SOUTHEAST LOWER MICHIGAN
  
CITY           SKY/WX    TMP DP  RH WIND       PRES   REMARKS
ADRIAN         MOCLDY    33  24  69 W13G22    30.01R WCI  24          
6HR MIN TEMP:  33; 6HR MAX TEMP:  35; 6HR PCP: TRACE;                

ALMA           CLOUDY    33  23  66 W17G24    29.93R WCI  22          
6HR MIN TEMP:  33; 6HR MAX TEMP:  35;                                

ANN ARBOR      CLOUDY    33  24  69 SW22G30   29.97R WCI  21          
BAD AXE        CLOUDY    34  26  71 W18G24    29.86R WCI  23          
6HR MIN TEMP:  34; 6HR MAX TEMP:  36;                                

CARO           CLOUDY    33  26  73 W13       29.90R WCI  24          
DETROIT CITY   CLOUDY    35  24  64 W12G22    29.97R WCI  27          
6HR MIN TEMP:  35; 6HR MAX TEMP:  38;                                

DETROIT        CLOUDY    35  23  61 W16G23    29.99R WCI  25          
6HR MIN TEMP:  34; 6HR MAX TEMP:  38;                                

FLINT          CLOUDY    33  22  63 SW14G23   29.94R WCI  23          
6HR MIN TEMP:  33; 6HR MAX TEMP:  36;                                

GROSSE ILE     CLOUDY    35  26  68 W9        29.98R WCI  28          
6HR MIN TEMP:  35; 6HR MAX TEMP:  38;                                

HILLSDALE      FAIR      31  22  68 W9        29.99R WCI  23          
6HR MIN TEMP:  31; 6HR MAX TEMP:  35;                                

HOWELL         CLOUDY    33  24  70 W10       29.95R WCI  25          
6HR MIN TEMP:  33; 6HR MAX TEMP:  36;                                


CITY           SKY/WX    TMP DP  RH WIND       PRES   REMARKS
JACKSON        MOCLDY    31  22  69 SW14      29.98R WCI  21          
6HR MIN TEMP:  31; 6HR MAX TEMP:  35;                                

LAMBERTVILLE   MOCLDY    34  27  75 W12G20    30.01R WCI  26          
6HR MIN TEMP:  34; 6HR MAX TEMP:  37;                                

LANSING        MOCLDY    32  23  69 W18G25    29.96R WCI  20          
6HR MIN TEMP:  32; 6HR MAX TEMP:  35;                                

LAPEER         CLOUDY    35  22  61 W17G24    29.93R WCI  24          
6HR MIN TEMP:  35; 6HR MAX TEMP:  37;                                

MASON          CLOUDY    34  26  72 W13G23    29.96R WCI  25          
6HR MIN TEMP:  34; 6HR MAX TEMP:  36;                                

MONROE         CLOUDY    34  30  84 SW12G22   29.99R WCI  26          
6HR MIN TEMP:  34; 6HR MAX TEMP:  37;                                

MT. CLEMENS    CLOUDY    36  28  72 W13       29.94R WCI  28          
6HR MIN TEMP:  36; 6HR MAX TEMP:  37;                                

PONTIAC        MOCLDY    33  24  69 W17G25    29.93R WCI  22          
6HR MIN TEMP:  33; 6HR MAX TEMP:  36;                                

PORT HOPE        N/A     34  24  67 W13G25    29.84R WCI  25          
6HR MIN TEMP:  34; 6HR MAX TEMP:  36;                                

PORT HURON     CLOUDY    36  27  69 SW8       29.94R WCI  29          
TRI CITIES     CLOUDY    34  25  69 SW16      29.90R WCI  24          
6HR MIN TEMP:  33; 6HR MAX TEMP:  36;                                

MIDLAND        CLOUDY    34  24  66 SW10G21   29.89R WCI  26          
6HR MIN TEMP:  34; 6HR MAX TEMP:  37;                                

TROY           CLOUDY    36  25  64 SW8       29.97R WCI  29          
SAGINAW HB     CLOUDY    34  27  75 SW15      29.91R WCI  24          
$$
MIZ043>046-050>051-056>058-064>065-071>073-077>080-211300-
SOUTHWEST LOWER MICHIGAN
  
CITY           SKY/WX    TMP DP  RH WIND       PRES   REMARKS
BATTLE CREEK   FAIR      30  21  69 W17G26    29.99R WCI  18          
6HR MIN TEMP:  30; 6HR MAX TEMP:  35;                                

BENTON HARBOR  FAIR      30  20  66 W22G28    30.05R WCI  17          
6HR MIN TEMP:  30; 6HR MAX TEMP:  36;                                

BIG RAPIDS     CLOUDY    29  21  73 W14G23    29.90R WCI  18          
6HR MIN TEMP:  29; 6HR MAX TEMP:  34;                                

COLDWATER      FAIR      31  25  76 W10       30.01R WCI  23          
6HR MIN TEMP:  31; 6HR MAX TEMP:  36;                                

FREMONT        CLOUDY    30  20  67 W10       29.95R WCI  21          
6HR MIN TEMP:  30; 6HR MAX TEMP:  35;                                

HOLLAND        FAIR      30  21  69 W20G31    30.01R WCI  17          
6HR MIN TEMP:  30; 6HR MAX TEMP:  36;                                

GRAND RAPIDS   MOCLDY    30  20  66 W21G30    29.97R WCI  17          
6HR MIN TEMP:  30; 6HR MAX TEMP:  35;                                

IONIA          MOCLDY    31  20  65 W23G30    29.95R WCI  17          
6HR MIN TEMP:  31; 6HR MAX TEMP:  35;                                

KALAMAZOO      FAIR      30  20  66 W15G25    30.01R WCI  19          
6HR MIN TEMP:  30; 6HR MAX TEMP:  36;                                

LUDINGTON      CLOUDY    29  21  71 W21G26    29.93R WCI  16          
6HR MIN TEMP:  29; 6HR MAX TEMP:  34;                                

MARSHALL       FAIR      30  23  74 W12G20    29.98R WCI  21          
MOUNT PLEASANT CLOUDY    32  20  62 W15G22    29.91R WCI  22          
6HR MIN TEMP:  32; 6HR MAX TEMP:  36;                                

MUSKEGON       FAIR      29  17  61 W21G29    29.99R WCI  16          
6HR MIN TEMP:  29; 6HR MAX TEMP:  36;                                

SOUTH HAVEN    FAIR      31  22  70 SW16G22   30.03R WCI  20          
$$
MIZ016>042-211300-
NORTHERN LOWER MICHIGAN
  
CITY           SKY/WX    TMP DP  RH WIND       PRES   REMARKS
ALPENA         CLOUDY    33  23  66 W9G22     29.78R WCI  25          
6HR MIN TEMP:  32; 6HR MAX TEMP:  35;                                

BEAVER ISLAND  FLURRIES  30  27  88 SW18G25   29.79R WCI  18          
6HR MIN TEMP:  28; 6HR MAX TEMP:  32;                                

BELLAIRE       CLOUDY    32  21  63 SW7       29.84R WCI  26          
6HR MIN TEMP:  32; 6HR MAX TEMP:  35;                                

CADILLAC       CLOUDY    29  20  69 W15G23    29.83R WCI  17          
CHARLEVOIX     FLURRIES  32  25  77 SW18G30   29.84R WCI  20          
6HR MIN TEMP:  32; 6HR MAX TEMP:  34;                                

FRANKFORT      CLOUDY    31  20  65 W16G23    29.88R WCI  19          
GAYLORD        LGT SNOW  27  23  85 W22G33    29.77R FOG     WCI  13  
6HR MIN TEMP:  27; 6HR MAX TEMP:  31; 6HR PCP: TRACE;                

GRAYLING       LGTSLEET  29  23  76 W10       29.81R WCI  20          
6HR MIN TEMP:  29; 6HR MAX TEMP:  32; 6HR PCP: TRACE;                

HARBOR SPRINGS CLOUDY    31  27  87 W18G26    29.78R WCI  19          
HOUGHTON LAKE  CLOUDY    29  22  75 W10G24    29.84R WCI  20          
6HR MIN TEMP:  29; 6HR MAX TEMP:  33; 6HR PCP:  0.01;                

MANISTEE       CLOUDY    29  22  75 W20G25    29.91R WCI  16          
OSCODA         CLOUDY    32  24  74 W16G22    29.82R WCI  21          
6HR MIN TEMP:  32; 6HR MAX TEMP:  33;                                

PELLSTON       CLOUDY    31  24  75 W18G31    29.77R WCI  19          
6HR MIN TEMP:  31; 6HR MAX TEMP:  33; 6HR PCP: TRACE;                

ROGERS CITY    CLOUDY    32  26  78 W8        29.78R WCI  24          
TRAVERSE CITY  CLOUDY    32  22  66 W12G29    29.85R WCI  23          
6HR MIN TEMP:  32; 6HR MAX TEMP:  36; 6HR PCP: TRACE;                

$$
MIZ007>008-015-211300-
EASTERN UPPER MICHIGAN
  
CITY           SKY/WX    TMP DP  RH WIND       PRES   REMARKS
KINROSS        FLURRIES  25  23  92 W12       29.74R WCI  14          
6HR MIN TEMP:  21; 6HR MAX TEMP:  26; 6HR PCP:  0.01;                

MACKINAC ISLAN FLURRIES  28  27  97 W21G30    29.76R WCI  15          
6HR MIN TEMP:  28; 6HR MAX TEMP:  32;                                

NEWBERRY       CLOUDY    23  21  91 MISG      29.75R                  
6HR MIN TEMP:  23; 6HR MAX TEMP:  28;                                

S. S. MARIE    CLOUDY    27  22  81 W14G23    29.73R WCI  16          
6HR MIN TEMP:  23; 6HR MAX TEMP:  27; 6HR PCP:  0.02;                

MUNISING         N/A     22  18  85 S7        29.77R WCI  13          
6HR MIN TEMP:  17; 6HR MAX TEMP:  24;                                

$$
MIZ004>006-011>014-085-211300-
CENTRAL UPPER MICHIGAN
  
CITY           SKY/WX    TMP DP  RH WIND       PRES   REMARKS
MANISTIQUE     CLOUDY    26  20  80 W6        29.79R WCI  19          
6HR MIN TEMP:  24; 6HR MAX TEMP:  29;                                

ESCANABA       FLURRIES  24  22  91 W6        29.82R WCI  17          
6HR MIN TEMP:  19; 6HR MAX TEMP:  25; 6HR PCP: TRACE;                

MENOMINEE      CLOUDY    22  17  81 W7        29.87R WCI  13          
6HR MIN TEMP:  22; 6HR MAX TEMP:  30; 6HR PCP: TRACE;                

SAWYER-GWINN   FLURRIES  21  18  86 SW7       29.74R WCI  13          
$$
MIZ001>003-009>011-084-211300-
WESTERN UPPER MICHIGAN
  
CITY           SKY/WX    TMP DP  RH WIND       PRES   REMARKS
IRON MOUNTAIN  LGT SNOW  25  21  85 W5        29.77R FOG     WCI  19  
6HR MIN TEMP:  19; 6HR MAX TEMP:  25; 6HR PCP: TRACE;                

HOUGHTON       FLURRIES  24  20  84 W15       29.73R WCI  11          
6HR MIN TEMP:  11; 6HR MAX TEMP:  24; 6HR PCP: TRACE;                

COPPER HARBOR    N/A     24  22  91 N16       29.74R WCI  11          
6HR MIN TEMP:  24; 6HR MAX TEMP:  26; 6HR PCP:  0.01;                

IRONWOOD       FLURRIES  21  19  92 W13       29.81R WCI   9          
6HR MIN TEMP:  21; 6HR MAX TEMP:  23;                                

$$

ABBREVIATIONS USED IN REMARKS
   TC - TEMPERATURE IN CELSIUS
  WCI - WIND CHILL INDEX
   HX - HEAT INDEX
  VSB - VISIBILITY